OneWeb SL0439

operational
NORAD ID: 51635 Int'l Des: 2022-012 Owner: ONEWEBN Country: UK Constellation: oneweb
LEOCIRCULARPOLARONEWEB_TYPE

关于 OneWeb SL0439

正在加载描述...

实时位置

正在加载3D地球...

即将过境

高度历史

Altitude vs Time

uPlot chart will show altitude changes over time

两行轨道根数

1 51635U 22012P 26034.09853298 -.00000582 00000-0 -17048-2 0 9995
2 51635 87.8751 62.9931 0001794 92.6814 267.4518 13.10371361191762
Epoch: Feb 3, 2026 • Age: 10 hours

当前状态

高度 1229.4 km
速度 7.25 km/s
星下点 53.41°N, 76.2°W
发射日期 Feb 10, 2022
运行时间 3.9 years
类型 internet

技术详情

分类 Payload
质量 148.00 kg
干质量 140.00 kg
总质量 148.00 kg
长度 1.30 m
直径 1.00 m
跨度 5.00 m
形状 Trapezoid+2 pan
制造商 ONEWUS
平台类型 ARROW
阶段状态 In Orbit
所有者/国家 ONEWEBN/UK

大型星座

Loading constellations...